TimeCDT,TemperatureF,Dew PointF,Humidity,Sea Level PressureIn,VisibilityMPH,Wind Direction,Wind SpeedMPH,Gust SpeedMPH,PrecipitationIn,Events,Conditions,WindDirDegrees,DateUTC
12:52 AM,32.0,26.1,79,30.16,10.0,NW,3.5,-,N/A,,Clear,310,2012-10-10 05:52:00
1:52 AM,30.9,25.0,79,30.20,10.0,NNW,8.1,-,N/A,,Clear,330,2012-10-10 06:52:00
2:52 AM,30.9,25.0,79,30.22,10.0,NW,5.8,-,N/A,,Clear,320,2012-10-10 07:52:00
3:52 AM,28.0,24.1,85,30.23,10.0,NNW,5.8,-,N/A,,Clear,340,2012-10-10 08:52:00
4:52 AM,27.0,23.0,85,30.23,10.0,NW,3.5,-,N/A,,Clear,320,2012-10-10 09:52:00
5:52 AM,26.1,21.9,84,30.26,10.0,NNW,4.6,-,N/A,,Clear,340,2012-10-10 10:52:00
6:52 AM,26.1,23.0,88,30.27,10.0,NW,4.6,-,N/A,,Clear,310,2012-10-10 11:52:00
7:52 AM,27.0,24.1,89,30.28,3.0,NW,5.8,-,N/A,,Clear,320,2012-10-10 12:52:00
8:52 AM,37.0,30.0,76,30.30,9.0,Calm,Calm,-,N/A,,Clear,0,2012-10-10 13:52:00
9:52 AM,46.0,32.0,58,30.31,10.0,Calm,Calm,-,N/A,,Clear,0,2012-10-10 14:52:00
11:52 AM,57.9,25.0,28,30.30,10.0,SW,5.8,-,N/A,,Clear,230,2012-10-10 16:52:00
12:52 PM,60.1,25.0,26,30.28,10.0,South,3.5,-,N/A,,Clear,190,2012-10-10 17:52:00
1:52 PM,64.0,26.1,24,30.25,10.0,West,6.9,-,N/A,,Clear,280,2012-10-10 18:52:00
2:52 PM,63.0,26.1,25,30.22,10.0,Calm,Calm,-,N/A,,Clear,0,2012-10-10 19:52:00
3:52 PM,64.0,26.1,24,30.19,10.0,SW,4.6,-,N/A,,Clear,230,2012-10-10 20:52:00
4:52 PM,64.0,26.1,24,30.17,10.0,Calm,Calm,-,N/A,,Clear,0,2012-10-10 21:52:00
5:52 PM,63.0,27.0,26,30.15,10.0,SSW,3.5,-,N/A,,Clear,200,2012-10-10 22:52:00
6:52 PM,55.9,28.9,36,30.15,9.0,South,6.9,-,N/A,,Clear,180,2012-10-10 23:52:00
7:52 PM,46.9,28.0,48,30.17,9.0,SSE,5.8,-,N/A,,Clear,160,2012-10-11 00:52:00
8:52 PM,46.0,28.9,51,30.16,10.0,SE,5.8,-,N/A,,Clear,140,2012-10-11 01:52:00
9:52 PM,46.9,30.9,54,30.16,10.0,SE,4.6,-,N/A,,Clear,140,2012-10-11 02:52:00
10:52 PM,45.0,30.9,58,30.16,10.0,ESE,5.8,-,N/A,,Clear,120,2012-10-11 03:52:00
11:52 PM,44.1,32.0,63,30.16,10.0,ESE,4.6,-,N/A,,Clear,120,2012-10-11 04:52:00